WP3OF-3 Weather Reports


time (UTC)temp
C
wind
direction
speed
KPH
gust
KPH
rain 1hr
cm
rain 24hr
cm
rain mn
cm
humidity
%
barometer
mb
20260505051834 21 181 0.0 0.0 0.00 0.00 0.00 93 1019.1
20260505051331 21 157 0.0 0.0 0.00 0.00 0.00 93 1019.2
20260505050829 21 176 0.0 0.0 0.00 0.00 0.00 93 1019.4
20260505050328 21 152 0.0 0.0 0.00 0.00 0.00 93 1019.3
20260505041757 21 181 0.0 0.0 0.00 0.00 0.00 93 1019.7
20260505041255 21 171 0.0 0.0 0.00 0.00 0.00 92 1019.6
20260505040752 21 188 0.0 0.0 0.00 0.00 0.00 92 1019.8
20260505040249 21 146 0.0 0.0 0.00 0.00 0.00 92 1019.8
20260505035746 21 173 0.0 0.0 0.00 0.00 0.00 92 1019.9
20260505035242 21 179 0.0 0.0 0.00 0.00 0.00 92 1020.0
20260505034739 21 155 0.0 0.0 0.00 0.00 0.00 92 1019.7
20260505034236 21 173 0.0 0.0 0.00 0.00 0.00 92 1019.9
20260505033733 21 170 0.0 0.0 0.00 0.00 0.00 92 1019.8
20260505033230 21 159 0.0 0.0 0.00 0.00 0.00 92 1019.9
20260505032729 22 190 0.0 0.0 0.00 0.00 0.00 92 1020.0
20260505032224 22 190 0.0 0.0 0.00 0.00 0.00 92 1020.1
20260505031722 22 182 0.0 0.0 0.00 0.00 0.00 92 1020.1
20260505031218 22 159 0.0 0.0 0.00 0.00 0.00 92 1020.1
20260505030715 22 184 0.0 0.0 0.00 0.00 0.00 92 1020.2
20260505030211 22 133 0.0 0.0 0.00 0.00 0.00 92 1020.4
20260505025707 22 188 0.0 0.0 0.00 0.00 0.00 92 1020.2
20260505025206 22 154 0.0 0.0 0.00 0.00 0.00 92 1019.9
20260505024703 22 181 0.0 0.0 0.00 0.00 0.00 92 1020.3
20260505024200 22 166 0.0 0.0 0.00 0.00 0.00 92 1020.1
20260505023657 22 141 0.0 0.0 0.00 0.00 0.00 91 1019.9
20260505023154 22 168 0.0 0.0 0.00 0.00 0.00 91 1020.0
20260505022652 22 173 0.0 0.0 0.00 0.00 0.00 91 1020.0
20260505022149 22 168 0.0 0.0 0.00 0.00 0.00 91 1019.9
20260505021645 22 144 0.0 0.0 0.00 0.00 0.00 91 1020.0
20260505021142 22 183 0.0 0.0 0.00 0.00 0.00 91 1019.9
20260505020637 22 158 0.0 0.0 0.00 0.00 0.00 91 1019.7
20260505020133 22 155 0.0 0.0 0.00 0.00 0.00 91 1019.9
20260505015631 22 141 0.0 0.0 0.00 0.00 0.00 91 1019.9
20260505015127 22 127 0.0 0.0 0.00 0.00 0.00 91 1019.6
20260505014624 22 146 0.0 0.0 0.00 0.00 0.00 91 1019.7
20260505014121 22 136 0.0 0.0 0.00 0.00 0.00 91 1019.6
20260505013619 22 161 0.0 0.0 0.00 0.00 0.00 91 1019.5
20260505013116 22 145 0.0 0.0 0.00 0.00 0.00 90 1019.7
20260505012614 22 147 0.0 0.0 0.00 0.00 0.00 90 1019.5
20260505012111 22 124 0.0 0.0 0.00 0.00 0.00 90 1019.6
20260505011606 23 160 0.0 0.0 0.00 0.00 0.00 89 1019.5
20260505011104 23 180 0.0 0.0 0.00 0.00 0.00 89 1019.4
20260505010604 23 155 0.0 0.0 0.00 0.00 0.00 89 1019.4
20260505005558 23 142 0.0 0.0 0.00 0.00 0.00 89 1019.5
20260505005055 23 201 0.0 0.0 0.00 0.00 0.00 88 1019.2
20260505004552 23 154 0.0 0.0 0.00 0.00 0.00 88 1019.2
20260505004049 23 163 0.0 0.0 0.00 0.00 0.00 88 1019.1
20260505003546 23 146 0.0 0.0 0.00 0.00 0.00 88 1019.1
20260505003043 23 177 0.0 0.0 0.00 0.00 0.00 87 1019.3
20260505002538 23 157 0.0 0.0 0.00 0.00 0.00 87 1019.0
20260505002037 23 156 0.0 0.0 0.00 0.00 0.00 87 1018.9
20260505001534 23 205 0.0 0.0 0.00 0.00 0.00 86 1018.8
20260505001031 24 153 0.0 0.0 0.00 0.00 0.00 86 1018.8
20260505000528 24 220 0.0 0.0 0.00 0.00 0.00 85 1018.8
20260505000026 24 202 0.0 0.0 0.00 0.00 0.00 83 1018.9
20260504235523 24 158 0.0 0.0 0.00 0.00 0.00 83 1018.7
20260504235019 25 218 0.0 0.0 0.00 0.00 0.00 84 1018.7
20260504234516 25 139 0.0 0.0 0.00 0.00 0.00 84 1018.6
20260504234013 25 177 0.0 0.0 0.00 0.00 0.00 83 1018.5
20260504233508 25 283 0.0 0.0 0.00 0.00 0.00 84 1018.6
20260504233006 25 249 0.0 0.0 0.00 0.00 0.00 84 1018.5
20260504232503 25 321 0.0 0.0 0.00 0.00 0.00 86 1018.6
20260504232000 26 216 0.0 0.0 0.00 0.00 0.00 86 1018.7
20260504231456 26 209 0.0 0.0 0.00 0.00 0.00 85 1018.7
20260504230952 26 249 0.0 0.0 0.00 0.00 0.00 85 1018.6
20260504230449 26 323 0.0 0.0 0.00 0.00 0.00 85 1018.5
20260504225948 26 223 0.0 0.0 0.00 0.00 0.00 84 1018.5
20260504225444 26 149 0.0 1.6 0.00 0.00 0.00 83 1018.2
20260504224942 26 178 0.0 0.0 0.00 0.00 0.00 82 1018.3
20260504224438 26 224 0.0 0.0 0.00 0.00 0.00 82 1018.0
20260504223936 26 334 0.0 0.0 0.00 0.00 0.00 82 1018.2
20260504223431 26 171 0.0 0.0 0.00 0.00 0.00 80 1018.2
20260504222927 26 123 0.0 0.0 0.00 0.00 0.00 79 1018.2
20260504222425 26 137 0.0 0.0 0.00 0.00 0.00 78 1018.0
20260504221923 26 181 0.0 0.0 0.00 0.00 0.00 77 1018.0
20260504221419 27 155 0.0 0.0 0.00 0.00 0.00 75 1017.9
20260504220916 27 132 0.0 0.0 0.00 0.00 0.00 73 1017.8
20260504220413 27 66 0.0 0.0 0.00 0.00 0.00 72 1017.7
20260504215910 27 154 0.0 0.0 0.00 0.00 0.00 72 1017.7
20260504215407 27 77 0.0 0.0 0.00 0.00 0.00 70 1017.5
20260504214903 27 96 0.0 0.0 0.00 0.00 0.00 70 1017.4
20260504214400 27 210 0.0 1.6 0.00 0.00 0.00 65 1017.3
20260504213856 27 138 0.0 0.0 0.00 0.00 0.00 70 1017.3
20260504213352 28 170 0.0 0.0 0.00 0.00 0.00 68 1017.3
20260504212850 28 13 0.0 0.0 0.00 0.00 0.00 65 1017.1
20260504212346 28 200 0.0 0.0 0.00 0.00 0.00 66 1017.3
20260504211844 28 121 0.0 0.0 0.00 0.00 0.00 65 1017.2
20260504211339 28 195 0.0 0.0 0.00 0.00 0.00 67 1017.2
20260504210837 29 188 0.0 1.6 0.00 0.00 0.00 66 1017.4
20260504210334 29 291 0.0 1.6 0.00 0.00 0.00 62 1017.4
20260504205831 29 52 0.0 3.2 0.00 0.00 0.00 62 1017.2
20260504205329 29 350 1.6 9.7 0.00 0.00 0.00 62 1017.4
20260504204827 29 178 0.0 3.2 0.00 0.00 0.00 64 1017.2
20260504204325 30 26 0.0 0.0 0.00 0.00 0.00 61 1017.0
20260504203824 30 144 0.0 6.4 0.00 0.00 0.00 58 1017.2
20260504203321 30 111 0.0 3.2 0.00 0.00 0.00 59 1017.2
20260504202816 30 251 1.6 4.8 0.00 0.00 0.00 58 1017.1
20260504202314 30 222 1.6 3.2 0.00 0.00 0.00 59 1017.3
20260504201810 30 244 4.8 6.4 0.00 0.00 0.00 58 1017.1
20260504201308 30 202 4.8 4.8 0.00 0.00 0.00 58 1017.1
20260504200805 30 21 0.0 4.8 0.00 0.00 0.00 59 1017.2
20260504200301 30 307 3.2 3.2 0.00 0.00 0.00 57 1017.2
20260504195757 30 269 3.2 4.8 0.00 0.00 0.00 58 1017.2
20260504195253 30 50 1.6 3.2 0.00 0.00 0.00 57 1017.1
20260504194750 30 313 3.2 3.2 0.00 0.00 0.00 57 1017.2
20260504194247 30 249 0.0 9.7 0.00 0.00 0.00 57 1017.2
20260504193743 30 342 0.0 3.2 0.00 0.00 0.00 57 1017.2
20260504193241 30 43 0.0 1.6 0.00 0.00 0.00 58 1017.1
20260504192739 30 260 0.0 1.6 0.00 0.00 0.00 56 1017.3
20260504192237 30 299 1.6 3.2 0.00 0.00 0.00 57 1017.3
20260504191735 31 291 1.6 4.8 0.00 0.00 0.00 54 1017.2
20260504191232 30 265 1.6 11.3 0.00 0.00 0.00 54 1017.5
20260504190727 31 249 1.6 6.4 0.00 0.00 0.00 53 1017.2
20260504190224 31 8 1.6 9.7 0.00 0.00 0.00 52 1017.3
20260504185720 31 259 6.4 9.7 0.00 0.00 0.00 51 1017.2
20260504185217 31 247 4.8 4.8 0.00 0.00 0.00 50 1017.5
20260504184713 32 214 0.0 1.6 0.00 0.00 0.00 51 1017.2
20260504184209 32 246 0.0 0.0 0.00 0.00 0.00 50 1017.2
20260504183705 32 212 1.6 1.6 0.00 0.00 0.00 52 1017.4
20260504183202 32 212 3.2 9.7 0.00 0.00 0.00 50 1017.7
20260504182700 32 121 0.0 3.2 0.00 0.00 0.00 49 1017.5
20260504182157 32 238 1.6 4.8 0.00 0.00 0.00 49 1017.7
20260504181655 32 208 0.0 1.6 0.00 0.00 0.00 49 1017.7
20260504181152 31 18 1.6 3.2 0.00 0.00 0.00 53 1017.7
20260504180651 32 92 0.0 1.6 0.00 0.00 0.00 50 1017.8
20260504180149 32 318 0.0 1.6 0.00 0.00 0.00 51 1017.6
20260504175646 31 281 3.2 9.7 0.00 0.00 0.00 47 1017.9
20260504175143 31 226 0.0 3.2 0.00 0.00 0.00 46 1018.0
20260504174641 32 150 0.0 4.8 0.00 0.00 0.00 44 1018.1
20260504174137 31 310 1.6 4.8 0.00 0.00 0.00 45 1018.0
20260504173635 31 256 0.0 3.2 0.00 0.00 0.00 51 1018.2
20260504173132 31 242 1.6 3.2 0.00 0.00 0.00 53 1018.2
20260504172628 31 239 0.0 4.8 0.00 0.00 0.00 63 1018.2
20260504172125 31 335 1.6 3.2 0.00 0.00 0.00 67 1018.3
20260504171621 30 78 0.0 0.0 0.00 0.00 0.00 72 1018.3
20260504171119 30 184 0.0 1.6 0.00 0.00 0.00 72 1018.5
20260504170615 30 125 1.6 3.2 0.00 0.00 0.00 72 1018.4
20260504170113 30 63 0.0 3.2 0.00 0.00 0.00 70 1018.4
20260504150958 30 35 3.2 3.2 0.00 0.00 0.00 58 1019.3
20260504150455 30 194 1.6 6.4 0.00 0.00 0.00 59 1019.3
20260504140921 29 335 0.0 4.8 0.00 0.00 0.00 66 1019.6
20260504140418 28 286 3.2 9.7 0.00 0.00 0.00 60 1019.5
20260504130343 26 245 4.8 9.7 0.00 0.00 0.00 72 1019.5
20260504120306 22 202 0.0 0.0 0.00 0.00 0.00 96 1019.4
20260504110230 19 165 0.0 0.0 0.00 0.00 0.00 96 1019.4
20260504100154 19 165 0.0 0.0 0.00 0.00 0.00 96 1019.1
20260504090116 19 165 0.0 0.0 0.00 0.00 0.00 96 1019.1
20260504081546 19 165 0.0 0.0 0.00 0.00 0.00 95 1018.3
20260504081042 20 165 0.0 0.0 0.00 0.00 0.00 95 1018.4
20260504080539 20 165 0.0 0.0 0.00 0.00 0.00 95 1018.6